Vertical_Velocity
3 2 1 0 -1 -0 1 -0 -1 -3 -2 -3 -4 -3 -9 -11 -6 -5 -4 -4 -4 -2 -3 -5 -5 -3 -3 -2 -2 -2 -1 -3 2 -4 -2 -6 -3 -0 -13 5 2 -2 0
-0 0 0 -0 0 2 0 0 -1 -1 -2 -2 -0 -3 -4 -4 -3 -2 -0 2 0 0 0 2 0 1 -1 2 2 1 -4 1 3 0 1 -7 -22 5 16 -2 10 -2 -0
-3 -2 -3 -1 2 1 -0 2 1 -0 -3 -1 -2 -1 3 1 -1 -1 -3 -1 -3 -2 -3 -1 -1 -1 -1 -0 2 -0 3 -3 -1 4 6 -3 2 -13 -5 -2 4 1 -1
1 3 0 -1 0 1 1 3 1 -3 -2 -1 -0 2 -0 -3 -2 1 -1 -4 -1 -2 0 -0 -1 -3 -1 -1 1 -0 2 2 -3 -2 1 7 11 -1 -15 -12 2 -0 0
-2 -3 -4 1 2 1 3 4 -1 -2 1 1 0 -1 -1 1 -1 -1 -4 -1 -1 -1 -3 -0 -0 -2 -1 0 0 -2 -0 1 2 2 -1 -1 -1 2 3 -15 -21 2 -6
-1 0 4 3 2 2 4 3 -3 -0 0 -0 0 1 -0 -3 -5 -2 -3 -3 -3 -3 -1 -1 -1 -2 -0 0 -2 -2 -1 -1 2 2 2 3 2 -4 8 7 -5 -11 3
-0 0 -2 0 2 3 2 -2 -1 2 -0 0 0 -1 -2 -1 -1 -2 -3 -3 -2 -1 0 -2 -1 -3 1 1 -0 -2 -2 1 0 2 0 2 0 2 -0 3 -3 -6 -3
0 -1 3 3 4 2 0 -1 0 -0 0 0 0 -1 -1 -2 -3 -1 -0 1 -0 -1 -3 -2 1 0 1 1 -0 -2 -1 0 -0 -0 2 1 -1 2 2 4 4 -10 -4
-0 2 4 3 1 1 -1 0 1 1 0 0 -3 -2 -2 -1 -1 -1 -2 -2 -2 -3 -2 0 -1 0 -1 1 -1 -2 -2 -1 -1 -1 0 2 -1 1 2 2 5 10 0
1 2 0 0 1 0 1 1 0 -1 -3 -5 -1 -2 1 1 -1 -2 -2 -1 -0 -1 -3 -2 -0 1 -1 0 0 -1 -1 -1 -0 -1 -2 0 -0 1 2 1 -0 3 6
1 -0 0 1 1 2 1 1 -0 -3 -3 1 0 1 0 -2 -2 -2 0 -2 -1 -1 -2 -1 -1 -1 -2 0 0 1 -2 2 -1 0 -2 -2 2 -2 2 1 1 -1 4
0 1 1 1 2 1 -0 -0 -2 -2 1 0 -1 -2 -4 -3 -3 -1 -1 1 -1 -1 -1 -1 -1 -1 -2 -1 1 -0 0 -1 -2 0 -2 -2 1 -0 1 2 -0 1 1
1 0 2 2 1 -1 -2 -2 1 -0 -2 -3 -2 -2 -2 -2 -1 -2 -1 1 -2 -1 -2 -0 -1 -1 -2 -3 2 1 -0 0 -2 0 -1 -2 0 -2 -0 2 -0 1 1
1 2 2 -0 -3 -2 -1 1 -1 -2 -4 -2 -1 -2 -2 -2 -2 -1 -1 -2 1 -2 -1 1 -1 0 -1 0 1 1 0 0 0 -0 1 0 0 -1 -1 1 -0 1 0
1 1 -1 -1 -0 -0 1 -1 -2 -2 -1 -1 -1 -2 -3 -2 -3 -2 -2 1 -1 -1 0 -3 -1 1 -0 0 -2 1 -1 0 -1 -1 0 -0 1 -3 -0 2 -2 1 1
0 -1 -0 0 0 -3 -4 -3 -1 -1 -2 -3 -2 -1 -2 -1 -1 -2 -1 -3 -3 -1 0 0 -1 -2 0 1 2 4 -1 -0 -0 -3 1 -2 1 -1 -1 1 6 8 -2
-1 -1 -1 -1 -3 -2 -3 -1 -0 -1 -3 -2 -1 -3 -0 -1 -2 -1 -2 -3 -1 -3 -0 -0 -1 -1 -1 1 2 2 5 5 4 3 2 4 2 4 -1 -2 1 3 3
-0 0 -1 -2 -2 -1 -0 0 -2 -2 -1 -0 -3 0 -1 -4 -3 -2 -3 -1 -1 -0 -3 -1 -0 -1 -1 0 2 0 2 -1 1 -2 -3 -2 -5 -0 -0 -3 -2 -2 -1
-2 -1 -1 -2 -0 -0 -1 -3 -2 0 -1 -3 -2 -1 -3 -6 -4 -3 -2 -1 -5 -0 -0 -1 0 1 -3 1 1 5 0 -1 -1 -1 -2 -1 -4 2 -1 1 -0 4 -3
-1 -1 -0 -0 -0 -1 -2 -1 -1 -2 -3 -3 -1 -3 -4 -2 -3 -2 -4 -3 0 -0 -1 -1 4 1 -1 2 -0 5 3 1 0 -1 -1 0 -0 -3 -2 2 -1 -0 -6
-0 1 0 0 -2 -2 -0 -2 -2 -2 -3 -1 -1 -3 -1 -2 -2 -3 -1 -4 -2 2 -1 -1 -1 -0 3 -4 -1 3 3 1 -3 -3 -2 -3 -1 2 2 8 11 -5 3
0 0 -0 -1 0 -1 -4 -2 -2 -3 -1 0 -1 -1 -1 -4 -3 -2 -2 1 1 -1 -2 -3 -5 -1 -2 1 -2 2 5 4 7 3 -0 -3 -1 -2 -3 3 0 2 6
-1 -1 -1 -0 -1 -3 -3 -3 -2 -2 -2 -2 -1 -1 -3 -3 -2 -1 -2 -1 1 -0 -3 -1 -4 -6 -1 0 4 2 1 2 2 -1 -3 1 -0 -1 0 -2 -2 1 7
-1 -1 -0 -3 -2 -1 -1 0 0 -0 -1 -2 -2 -4 -5 -3 1 1 -0 3 1 -3 -3 -0 -0 -3 -5 -2 -0 -2 -2 3 1 2 1 1 1 4 -3 -1 -0 6 3
-2 -1 -2 -2 -2 -3 0 1 0 -3 -4 -2 -4 -5 -4 -0 -0 -2 -3 -1 8 6 6 2 2 1 -6 -2 5 8 2 0 -2 0 -1 -3 1 -3 -2 -3 -1 3 -0
-2 -2 -2 -1 -2 -1 -0 -0 -2 -3 -3 -4 -6 -2 -2 1 -1 -1 -7 10 7 -0 2 3 10 1 7 5 5 2 2 2 4 6 4 -1 3 -3 -1 -1 -1 2 1
Height
1528 1530 1532 1533 1534 1534 1534 1534 1535 1534 1533 1531 1528 1526 1523 1520 1517 1512 1507 1502 1496 1492 1487 1482 1478 1473 1469 1465 1462 1458 1453 1450 1445 1439 1432 1429 1428 1427 1427 1425 1422 1420 1420
1523 1525 1527 1529 1530 1531 1532 1531 1532 1531 1529 1527 1524 1521 1518 1514 1510 1506 1502 1498 1493 1488 1482 1478 1473 1469 1464 1460 1456 1452 1447 1444 1442 1438 1432 1424 1421 1421 1420 1421 1417 1416 1414
1515 1519 1522 1525 1527 1528 1529 1529 1529 1528 1526 1523 1521 1518 1514 1510 1505 1501 1497 1493 1489 1484 1479 1474 1468 1464 1460 1455 1451 1447 1444 1439 1438 1437 1437 1430 1424 1418 1415 1417 1414 1411 1411
1511 1515 1518 1521 1523 1525 1525 1526 1525 1524 1522 1519 1516 1513 1508 1502 1498 1494 1490 1486 1481 1477 1474 1468 1463 1460 1455 1451 1448 1443 1440 1437 1433 1431 1432 1431 1428 1424 1414 1409 1408 1407 1406
1505 1510 1514 1518 1520 1521 1522 1522 1522 1521 1518 1516 1512 1508 1503 1500 1494 1490 1485 1480 1476 1472 1468 1464 1459 1454 1450 1445 1443 1439 1436 1433 1430 1427 1425 1423 1421 1421 1418 1410 1405 1403 1403
1501 1507 1512 1515 1516 1517 1519 1519 1518 1517 1514 1512 1508 1504 1499 1494 1489 1484 1478 1473 1468 1465 1461 1457 1453 1449 1445 1440 1437 1433 1431 1428 1425 1423 1421 1419 1418 1416 1416 1411 1407 1404 1398
1497 1503 1506 1509 1511 1513 1515 1515 1514 1513 1510 1507 1504 1500 1495 1491 1485 1479 1473 1468 1462 1458 1454 1451 1447 1443 1439 1434 1431 1428 1426 1423 1420 1418 1415 1414 1412 1412 1412 1410 1407 1403 1396
1494 1499 1503 1506 1508 1509 1510 1511 1510 1508 1505 1502 1499 1495 1492 1487 1481 1475 1470 1465 1460 1455 1451 1446 1442 1437 1433 1428 1425 1422 1420 1417 1415 1412 1410 1408 1407 1407 1407 1407 1407 1402 1399
1492 1496 1500 1502 1504 1505 1506 1506 1505 1504 1501 1498 1493 1490 1485 1480 1473 1469 1464 1458 1453 1448 1444 1441 1436 1431 1427 1422 1419 1415 1413 1411 1409 1406 1404 1402 1401 1401 1401 1402 1403 1404 1401
1490 1493 1496 1498 1500 1501 1502 1502 1501 1499 1496 1492 1488 1483 1479 1474 1468 1462 1458 1452 1447 1442 1438 1434 1429 1424 1420 1416 1413 1409 1407 1404 1403 1401 1399 1396 1395 1395 1395 1396 1397 1399 1398
1487 1490 1492 1494 1496 1498 1498 1498 1497 1494 1491 1487 1483 1478 1474 1468 1463 1457 1452 1447 1441 1436 1431 1427 1422 1418 1414 1410 1406 1403 1400 1399 1396 1395 1394 1391 1390 1389 1389 1390 1392 1393 1394
1484 1486 1489 1491 1493 1494 1495 1494 1492 1489 1486 1482 1477 1473 1467 1462 1457 1452 1446 1441 1435 1430 1426 1421 1416 1411 1407 1404 1399 1396 1394 1392 1390 1389 1387 1385 1385 1384 1384 1384 1385 1387 1389
1481 1483 1486 1489 1490 1491 1491 1489 1487 1485 1481 1476 1471 1466 1461 1456 1450 1444 1439 1434 1428 1423 1419 1414 1409 1404 1400 1396 1393 1389 1386 1385 1383 1383 1382 1381 1380 1379 1379 1379 1380 1382 1383
1478 1481 1484 1486 1487 1487 1486 1485 1483 1480 1475 1470 1465 1460 1455 1450 1444 1439 1433 1427 1422 1416 1411 1407 1401 1396 1392 1388 1385 1382 1380 1379 1378 1377 1377 1376 1375 1374 1374 1375 1375 1377 1378
1475 1479 1481 1482 1483 1483 1482 1481 1477 1473 1468 1464 1459 1455 1449 1444 1438 1433 1427 1421 1415 1410 1404 1398 1394 1389 1384 1381 1377 1376 1375 1373 1372 1371 1371 1371 1370 1370 1370 1371 1371 1373 1375
1472 1475 1478 1478 1479 1479 1478 1474 1471 1467 1463 1459 1454 1449 1444 1439 1432 1426 1420 1414 1408 1402 1396 1391 1386 1381 1377 1374 1372 1371 1369 1367 1366 1365 1365 1365 1365 1365 1365 1366 1368 1370 1371
1468 1471 1473 1475 1475 1474 1472 1470 1466 1463 1460 1455 1450 1445 1438 1432 1427 1421 1414 1407 1400 1394 1389 1383 1378 1373 1370 1366 1366 1365 1363 1361 1360 1359 1359 1359 1359 1359 1360 1360 1362 1363 1365
1464 1468 1470 1471 1471 1469 1467 1466 1463 1459 1455 1450 1446 1440 1434 1428 1422 1414 1407 1400 1394 1388 1381 1376 1372 1366 1363 1361 1359 1358 1356 1353 1352 1352 1352 1352 1352 1354 1355 1355 1356 1357 1360
1463 1466 1467 1467 1465 1464 1463 1462 1459 1456 1452 1447 1442 1436 1429 1422 1415 1408 1401 1394 1387 1381 1375 1371 1365 1361 1356 1353 1352 1351 1348 1346 1345 1345 1345 1346 1346 1347 1349 1350 1351 1352 1354
1459 1461 1462 1463 1462 1461 1460 1458 1456 1451 1447 1443 1438 1432 1425 1417 1409 1402 1395 1388 1383 1376 1370 1365 1361 1356 1351 1348 1345 1344 1343 1341 1340 1339 1339 1340 1340 1341 1343 1345 1346 1347 1349
1457 1458 1459 1459 1458 1458 1456 1455 1451 1447 1443 1438 1433 1427 1420 1412 1405 1397 1391 1383 1377 1371 1366 1360 1355 1350 1347 1342 1340 1339 1338 1336 1334 1334 1333 1334 1335 1336 1338 1339 1341 1342 1345
1454 1456 1457 1456 1456 1455 1453 1451 1447 1443 1439 1434 1429 1422 1415 1408 1401 1393 1387 1380 1373 1367 1361 1355 1349 1345 1341 1338 1335 1333 1333 1331 1330 1328 1327 1328 1329 1330 1331 1333 1335 1337 1340
1451 1453 1454 1454 1454 1452 1449 1447 1443 1439 1435 1430 1424 1418 1411 1403 1398 1391 1384 1376 1370 1363 1357 1352 1345 1340 1337 1333 1330 1328 1326 1324 1323 1322 1321 1322 1322 1323 1325 1327 1329 1332 1334
1449 1451 1451 1451 1451 1449 1447 1444 1440 1437 1432 1426 1420 1413 1406 1400 1395 1389 1383 1374 1367 1360 1355 1350 1344 1338 1332 1328 1324 1321 1319 1318 1316 1316 1315 1315 1316 1316 1317 1320 1322 1324 1327
1447 1448 1448 1448 1447 1446 1445 1442 1438 1434 1429 1423 1416 1410 1403 1397 1390 1386 1380 1373 1367 1361 1355 1348 1343 1335 1329 1325 1321 1319 1315 1312 1310 1309 1308 1308 1308 1309 1310 1312 1314 1318 1321
1444 1444 1445 1444 1444 1444 1442 1439 1435 1431 1426 1420 1414 1407 1401 1394 1387 1380 1374 1372 1365 1358 1353 1346 1340 1333 1328 1322 1317 1312 1308 1305 1303 1301 1300 1300 1301 1302 1303 1305 1308 1312 1316